CZ-2D DEB, 44610

Orbit data source: Space-Track

CZ-2D DEB, 44610 is space debris in SSO originally from a launch on Mon, 09 Oct 2017 UTC launched from the Jiuquan Satellite Launch Center, China (JSC). Debris objects in space refer to the collection of defunct objects orbiting the Earth. Examples of debris include non-operational satellites, rocket bodies, and fragments generated from explosions, collisions, or faulty payload assembly.

Loading next visibility...
Identifier
44610, 2017-060C
Orbit
SSO
Country
Flag of CNCN / PRC
Related business
Manufacturer
Unknown
Mission
Spacecraft
Bus & Motor
Unknown
Mass
Unknown
Launch date (UTC)
2017-10-09 (9 years ago)
Launch vehicle
Unknown
Launch site
Jiuquan Satellite Launch Center, China (JSC)
Object type
Payload
Rocket body
Debris
Shape & HBR
Unknown shape, 0.1 m
Radar Cross Section
Medium (>0.1 m² and <1 m²)

Expand to show TLE details & history
Last TLE update: 5 days ago

TLE from 5 days ago
0 CZ-2D DEB
1 44610U 17060C   26168.55627809  .00004819  00000-0  30714-3 0  9994
2 44610  98.2361  15.1990 0018531  94.1625 266.1720 15.09135838469305
Epoch: 2026-06-17T13:21Z
TLE epoch observation values (Epoch: 2026-06-17T13:21:02.426Z)
Latitude
-0.00007°
Longitude
-90.87336°
Altitude
542.77 km
Speed
7.59 km/s
True Right ascension
01h 00m 47s
True Declination
0° 00' 00"
Sunlit
Object was in daylight at epoch
Visualization orbit readout
Latitude
Unknown
Longitude
Unknown
Altitude
Unknown
Speed
Unknown
Apparent Right ascension
Unknown
Apparent Declination
Unknown
Sunlit
N/A
Visualization observer readout
Local Sidereal Time
21:40:02
Azimuth
Unknown
Elevation
Unknown
Doppler factor
Unknown
Orbital elements
Apogee altitude
548.669 km
Perigee altitude
523.045 km
Semi-major axis
6,913.994 km
Eccentricity
0.00185
Inclination
98.2361°
RAAN
15.199°
Arg. of periapsis
94.1625°
True anomaly
265.96016°
Mean anomaly
266.172°
Eccentric anomaly
266.06608°
Mean motion
3.77528 °/min
Orbital period
95.36 mins
BSTAR
0.00030714
Loading maneuver chart data...
Computing Atmospheric mass density...
Loading historical data...
Loading historical data...
Loading historical data...
Loading historical data...
Loading historical data...
Loading historical data...
Loading historical data...
Other satellites on launch #60 in the year 2017 (2017-10-09 UTC)

Documentation

Showing up to 5 results
|